�N����,����,�~����,�C��,���x,�C��,����,���ϕ���,�ő�u�ԕ���,�ő厞����,���˗�,�I�_���x,�n�����x,�ő啗���N��,DTYPE
"22/07/23","00:10",0.0,23.4,86.8,998.2,325.2,1.7,3.5,337.8,0.00,21.1,25.1,"00:06:08",1
"22/07/23","00:20",0.0,23.4,86.9,998.4,316.4,1.5,2.7,340.5,0.00,21.1,25.2,"00:12:16",1
"22/07/23","00:30",0.0,23.3,87.2,998.4,300.7,1.6,2.9,322.1,0.00,21.1,25.3,"00:27:20",1
"22/07/23","00:40",0.0,23.3,87.4,998.4,300.3,1.5,3.1,331.6,0.00,21.1,25.3,"00:38:16",1
"22/07/23","00:50",0.0,23.4,87.6,998.6,311.6,1.7,2.8,322.8,0.00,21.3,25.2,"00:41:12",1
"22/07/23","01:00",0.0,23.3,87.9,998.6,312.6,1.8,3.5,306.5,0.00,21.2,25.3,"00:59:20",1
"22/07/23","01:10",0.0,23.2,88.4,998.4,324.4,2.2,4.2,325.6,0.00,21.2,25.3,"01:05:36",1
"22/07/23","01:20",0.0,23.0,88.8,998.2,327.7,2.2,3.5,342.3,0.00,21.1,25.2,"01:11:12",1
"22/07/23","01:30",0.0,22.9,89.1,998.2,327.8,2.1,3.5,324.1,0.00,21.0,25.2,"01:21:20",1
"22/07/23","01:40",0.0,22.9,89.3,997.9,325.8,2.1,3.3,308.0,0.00,21.1,25.2,"01:38:16",1
"22/07/23","01:50",0.0,22.9,89.4,998.2,322.8,1.5,2.1,318.8,0.00,21.1,25.0,"01:46:00",1
"22/07/23","02:00",0.0,22.8,89.5,998.4,327.6,1.7,2.8,317.4,0.00,21.0,24.9,"01:51:44",1
"22/07/23","02:10",0.0,22.8,89.6,998.4,317.9,1.2,2.1,343.7,0.00,21.0,25.2,"02:03:28",1
"22/07/23","02:20",0.0,22.8,89.7,998.4,318.4,1.5,2.2,318.5,0.00,21.1,24.9,"02:17:28",1
"22/07/23","02:30",0.0,22.8,89.8,998.2,310.7,1.3,2.5,292.6,0.00,21.1,25.1,"02:26:24",1
"22/07/23","02:40",0.0,22.9,89.8,997.9,318.0,1.6,3.5,332.6,0.00,21.2,24.9,"02:32:24",1
"22/07/23","02:50",0.0,22.9,89.7,998.4,304.8,1.5,2.4,319.3,0.00,21.2,25.1,"02:40:08",1
"22/07/23","03:00",0.0,23.0,89.6,998.6,334.4,1.6,3.3,334.3,0.00,21.2,25.1,"02:50:24",1
"22/07/23","03:10",0.0,23.0,89.5,998.4,322.2,1.5,2.5,336.4,0.00,21.2,24.9,"03:03:36",1
"22/07/23","03:20",0.0,23.0,89.4,998.4,325.2,1.5,2.6,336.7,0.00,21.2,25.0,"03:18:48",1
"22/07/23","03:30",0.0,23.0,89.2,998.4,331.8,1.6,3.2,331.6,0.00,21.2,25.0,"03:26:08",1
"22/07/23","03:40",0.0,22.9,89.2,998.6,331.5,1.6,2.8,328.9,0.00,21.1,25.0,"03:36:32",1
"22/07/23","03:50",0.0,22.8,89.2,998.2,324.9,1.7,2.7,328.5,0.00,21.0,24.7,"03:49:20",1
"22/07/23","04:00",0.0,22.7,89.3,998.4,322.8,2.1,3.3,325.8,0.00,20.9,24.7,"03:59:12",1
"22/07/23","04:10",0.0,22.8,89.1,998.2,324.2,2.3,4.5,326.9,0.00,21.0,24.9,"04:08:32",1
"22/07/23","04:20",0.0,22.8,89.0,998.4,329.6,2.6,4.7,329.1,0.00,20.9,24.8,"04:12:40",1
"22/07/23","04:30",0.0,22.8,89.0,998.6,332.3,2.7,3.9,320.9,0.00,20.9,24.8,"04:24:56",1
"22/07/23","04:40",0.0,22.7,89.1,998.9,323.0,2.0,3.1,327.6,0.00,20.9,25.0,"04:30:08",1
"22/07/23","04:50",0.0,22.6,89.0,998.9,319.3,2.0,2.9,333.3,0.00,20.7,24.9,"04:46:48",1
"22/07/23","05:00",0.0,22.6,89.1,998.9,321.3,2.0,3.1,331.2,0.00,20.8,24.8,"04:50:56",1
"22/07/23","05:10",0.0,22.6,89.1,999.1,327.9,2.5,3.4,335.6,0.00,20.8,24.9,"05:01:04",1
"22/07/23","05:20",0.0,22.6,89.1,999.3,316.4,2.2,4.0,323.8,0.00,20.8,24.9,"05:17:12",1
"22/07/23","05:30",0.0,22.6,88.8,999.1,323.4,2.6,4.1,338.9,0.00,20.7,24.8,"05:27:04",1
"22/07/23","05:40",0.0,22.7,88.6,999.3,326.4,2.1,2.9,338.8,0.00,20.8,24.8,"05:37:52",1
"22/07/23","05:50",0.0,22.7,88.6,999.3,317.5,2.0,3.5,345.3,0.00,20.8,24.7,"05:43:12",1
"22/07/23","06:00",0.0,22.6,88.7,999.3,304.2,1.7,3.4,319.9,0.00,20.7,24.5,"05:54:40",1
"22/07/23","06:10",0.0,22.6,88.8,999.8,312.5,2.1,3.4,358.2,0.00,20.7,24.5,"06:09:28",1
"22/07/23","06:20",0.0,22.6,89.1,999.3,315.8,2.0,4.0,338.4,0.00,20.8,24.7,"06:11:44",1
"22/07/23","06:30",0.0,22.6,89.5,999.8,316.7,1.8,2.9,331.6,0.01,20.8,24.7,"06:23:04",1
"22/07/23","06:40",0.0,22.8,89.8,999.3,326.5,2.1,4.0,342.9,0.03,21.1,24.7,"06:36:00",1
"22/07/23","06:50",0.0,22.9,89.8,999.1,328.6,2.1,3.7,319.6,0.04,21.2,24.7,"06:41:12",1
"22/07/23","07:00",0.0,23.1,89.4,999.6,332.6,2.0,3.2,330.5,0.04,21.3,24.7,"06:50:08",1
"22/07/23","07:10",0.0,23.1,89.1,999.6,328.4,2.1,3.6,310.0,0.03,21.2,24.6,"07:06:24",1
"22/07/23","07:20",0.0,23.1,88.4,999.6,305.5,1.8,4.1,319.0,0.03,21.1,24.5,"07:11:28",1
"22/07/23","07:30",0.0,23.4,88.3,999.8,326.7,1.7,3.2,327.6,0.05,21.4,24.3,"07:20:16",1
"22/07/23","07:40",0.0,24.0,87.0,999.6,335.2,2.3,3.6,325.6,0.15,21.7,24.4,"07:37:36",1
"22/07/23","07:50",0.0,24.4,84.7,1000.0,319.2,2.6,4.5,340.6,0.17,21.7,24.3,"07:48:16",1
"22/07/23","08:00",0.0,24.8,81.8,999.8,321.8,2.1,4.8,318.5,0.19,21.5,24.5,"07:59:52",1
"22/07/23","08:10",0.0,25.2,80.5,999.8,305.3,1.7,3.9,0.9,0.22,21.6,24.5,"08:09:04",1
"22/07/23","08:20",0.0,25.4,79.0,999.6,310.8,1.7,3.9,307.3,0.24,21.5,24.6,"08:13:28",1
"22/07/23","08:30",0.0,25.7,76.3,999.3,324.4,1.8,4.1,350.0,0.28,21.3,24.4,"08:26:16",1
"22/07/23","08:40",0.0,25.8,75.0,999.3,320.5,2.1,5.5,321.0,0.27,21.1,24.5,"08:34:40",1
"22/07/23","08:50",0.0,26.4,72.8,999.1,324.2,1.6,3.4,301.7,0.32,21.2,24.4,"08:44:16",1
"22/07/23","09:00",0.0,27.1,69.0,999.1,338.1,1.2,3.2,228.6,0.31,21.0,24.6,"08:51:44",1
"22/07/23","09:10",0.0,27.1,68.3,998.4,346.3,0.8,2.0,12.3,0.17,20.8,24.6,"09:05:44",1
"22/07/23","09:20",0.0,26.6,68.9,998.9,248.2,1.2,4.3,237.1,0.19,20.5,24.5,"09:15:28",1
"22/07/23","09:30",0.0,26.1,69.2,998.9,324.0,1.7,4.4,352.9,0.10,20.1,24.6,"09:25:12",1
"22/07/23","09:40",0.0,26.0,70.5,998.9,2.4,1.2,2.5,314.8,0.13,20.3,24.5,"09:31:52",1
"22/07/23","09:50",0.0,26.2,70.6,999.1,19.5,1.2,2.6,354.4,0.13,20.5,24.4,"09:43:20",1
"22/07/23","10:00",0.0,26.4,70.7,999.1,12.6,1.1,2.9,348.6,0.16,20.7,24.6,"09:58:40",1
"22/07/23","10:10",0.0,26.4,70.1,999.3,289.8,1.0,2.5,353.5,0.18,20.6,24.7,"10:00:24",1
"22/07/23","10:20",0.0,27.1,69.1,998.6,47.5,0.8,2.7,12.6,0.30,21.0,24.5,"10:18:40",1
"22/07/23","10:30",0.0,27.1,67.7,998.9,17.1,1.0,2.5,326.6,0.17,20.7,24.7,"10:29:28",1
"22/07/23","10:40",0.0,26.4,69.6,998.9,352.0,1.5,3.6,22.9,0.13,20.4,24.7,"10:34:08",1
"22/07/23","10:50",0.0,26.8,70.8,998.6,355.9,1.6,3.5,346.5,0.22,21.1,24.6,"10:43:36",1
"22/07/23","11:00",0.0,28.1,67.3,999.1,354.9,1.2,2.2,59.9,0.60,21.5,24.6,"10:56:00",1
"22/07/23","11:10",0.0,28.6,64.6,999.8,291.7,1.1,3.1,325.9,0.47,21.3,24.7,"11:08:00",1
"22/07/23","11:20",0.0,28.1,65.1,999.8,244.2,1.2,3.3,236.9,0.27,21.0,24.8,"11:18:00",1
"22/07/23","11:30",0.0,27.4,66.9,999.6,305.7,1.5,3.6,358.8,0.22,20.7,24.7,"11:26:00",1
"22/07/23","11:40",0.0,27.5,66.4,999.3,292.5,1.2,3.1,321.9,0.30,20.7,24.7,"11:30:08",1
"22/07/23","11:50",0.0,27.5,66.1,999.6,313.1,1.2,4.3,346.5,0.22,20.6,24.8,"11:48:32",1
"22/07/23","12:00",0.0,27.6,64.7,999.6,331.8,1.8,3.6,22.8,0.20,20.4,24.7,"11:50:08",1
"22/07/23","12:10",0.0,27.1,65.7,999.3,296.7,1.8,3.9,322.2,0.16,20.2,24.7,"12:08:56",1
"22/07/23","12:20",0.0,27.1,67.0,998.9,301.1,1.2,3.1,331.5,0.14,20.5,24.8,"12:10:40",1
"22/07/23","12:30",0.0,27.8,65.0,999.3,293.2,0.7,2.0,228.9,0.24,20.7,24.7,"12:29:28",1
"22/07/23","12:40",0.0,28.1,63.6,999.1,343.6,0.8,2.0,10.4,0.17,20.6,24.7,"12:35:52",1
"22/07/23","12:50",0.0,28.1,64.3,999.1,340.7,1.0,3.5,237.6,0.14,20.8,24.9,"12:48:16",1
"22/07/23","13:00",0.0,28.5,64.2,998.9,324.4,1.0,2.0,337.1,0.29,21.1,24.9,"12:50:08",1
"22/07/23","13:10",0.0,28.8,62.1,999.3,316.8,0.7,2.2,358.4,0.25,20.9,25.0,"13:04:40",1
"22/07/23","13:20",0.0,29.1,62.2,999.3,228.2,0.3,1.2,247.7,0.20,21.2,24.7,"13:18:24",1
"22/07/23","13:30",0.0,28.7,62.4,999.3,285.0,1.0,2.6,235.6,0.25,20.8,24.7,"13:28:00",1
"22/07/23","13:40",0.0,27.8,64.2,998.9,333.6,1.8,4.9,341.2,0.14,20.5,25.0,"13:39:20",1
"22/07/23","13:50",0.0,28.1,66.4,998.6,345.2,1.7,3.9,323.9,0.18,21.3,24.9,"13:43:28",1
"22/07/23","14:00",0.0,28.5,64.8,998.9,333.5,1.2,2.6,343.4,0.33,21.3,24.7,"13:58:00",1
"22/07/23","14:10",0.0,28.8,62.6,999.3,347.5,1.0,2.9,301.1,0.22,21.0,25.1,"14:09:04",1
"22/07/23","14:20",0.0,28.3,64.5,998.9,336.1,1.2,2.9,350.3,0.15,21.0,24.9,"14:19:12",1
"22/07/23","14:30",0.0,27.8,66.5,998.9,340.0,2.0,4.3,356.1,0.15,21.0,25.0,"14:29:20",1
"22/07/23","14:40",0.0,27.4,66.9,998.6,328.7,2.2,3.6,339.1,0.18,20.7,25.0,"14:38:08",1
"22/07/23","14:50",0.0,28.4,68.0,998.2,322.8,1.6,3.3,329.1,0.37,22.0,25.0,"14:45:12",1
"22/07/23","15:00",0.0,30.1,62.7,999.1,325.4,1.1,3.3,236.7,0.56,22.2,25.0,"14:57:12",1
"22/07/23","15:10",0.0,29.8,60.5,999.3,283.7,0.8,2.6,247.4,0.22,21.4,24.9,"15:03:12",1
"22/07/23","15:20",0.0,28.5,63.2,999.6,352.6,2.1,5.1,3.4,0.12,20.9,24.9,"15:17:20",1
"22/07/23","15:30",0.0,28.2,66.6,998.6,348.5,2.2,5.0,349.7,0.20,21.4,25.1,"15:20:08",1
"22/07/23","15:40",0.0,29.0,63.6,998.6,340.4,2.0,4.3,354.3,0.31,21.4,25.2,"15:33:20",1
"22/07/23","15:50",0.0,28.4,64.6,998.6,332.2,2.0,3.9,331.7,0.13,21.1,25.2,"15:48:32",1
"22/07/23","16:00",0.0,28.3,65.6,998.4,358.4,1.7,3.6,357.1,0.14,21.3,25.2,"15:50:32",1
"22/07/23","16:10",0.0,28.7,64.5,998.9,335.4,2.0,3.6,343.7,0.28,21.4,25.0,"16:05:12",1
"22/07/23","16:20",0.0,29.1,63.1,998.9,350.4,2.0,4.2,331.4,0.22,21.4,25.1,"16:17:36",1
"22/07/23","16:30",0.0,28.1,65.3,998.9,342.0,2.5,4.8,347.4,0.13,21.0,25.2,"16:26:00",1
"22/07/23","16:40",0.0,28.9,64.9,998.6,340.9,2.2,4.2,342.6,0.33,21.7,25.2,"16:34:48",1
"22/07/23","16:50",0.0,28.8,62.9,999.1,336.8,2.5,4.8,335.2,0.22,21.1,25.2,"16:42:56",1
"22/07/23","17:00",0.0,28.2,64.9,998.9,351.7,2.3,4.8,342.1,0.14,21.0,25.3,"16:53:36",1
"22/07/23","17:10",0.0,28.1,66.3,998.9,349.7,2.1,4.2,338.3,0.13,21.3,25.3,"17:03:12",1
"22/07/23","17:20",0.0,27.7,66.5,999.1,348.7,2.3,5.0,353.4,0.12,20.9,25.2,"17:13:12",1
"22/07/23","17:30",0.0,27.3,67.3,998.2,347.6,2.5,4.2,335.8,0.07,20.7,25.3,"17:22:08",1
"22/07/23","17:40",0.0,27.6,68.2,998.6,342.7,2.6,5.5,340.4,0.12,21.3,25.1,"17:35:44",1
"22/07/23","17:50",0.0,27.9,66.8,998.6,344.5,2.5,5.0,326.7,0.07,21.2,25.2,"17:42:56",1
"22/07/23","18:00",0.0,27.8,65.9,998.9,341.6,2.7,4.8,349.7,0.04,20.9,25.2,"17:51:36",1
"22/07/23","18:10",0.0,27.5,66.4,998.6,333.6,2.5,4.1,317.4,0.02,20.7,25.3,"18:05:28",1
"22/07/23","18:20",0.0,27.3,67.1,998.4,328.1,2.6,4.0,347.0,0.01,20.7,25.2,"18:11:20",1
"22/07/23","18:30",0.0,27.2,67.5,998.4,335.6,2.5,4.5,343.8,0.00,20.7,25.2,"18:23:28",1
"22/07/23","18:40",0.0,27.0,68.3,999.1,346.6,2.5,4.3,341.2,0.00,20.7,25.2,"18:38:32",1
"22/07/23","18:50",0.0,26.7,69.0,998.9,348.3,2.3,6.4,346.1,0.00,20.6,25.2,"18:41:44",1
"22/07/23","19:00",0.0,26.4,69.8,999.3,346.1,2.1,3.7,348.0,0.00,20.5,25.2,"18:59:28",1
"22/07/23","19:10",0.0,25.8,71.0,999.8,343.2,2.1,3.6,338.6,0.00,20.2,25.4,"19:07:20",1
"22/07/23","19:20",0.0,25.4,72.1,1000.0,337.3,2.0,3.6,338.4,0.00,20.0,25.3,"19:13:12",1
"22/07/23","19:30",0.0,25.2,73.0,1000.3,336.6,2.3,4.2,346.2,0.00,20.1,25.4,"19:25:36",1
"22/07/23","19:40",0.0,24.9,74.1,1000.5,339.0,1.7,2.9,351.0,0.00,20.0,25.1,"19:30:08",1
"22/07/23","19:50",0.0,24.4,75.5,1000.3,333.2,1.8,2.7,346.4,0.00,19.8,25.1,"19:44:40",1
"22/07/23","20:00",0.0,24.2,76.7,1001.0,327.9,1.8,3.2,338.4,0.00,19.9,25.0,"19:57:12",1
"22/07/23","20:10",0.0,24.1,77.4,1001.0,340.1,2.1,4.3,342.4,0.00,19.9,25.3,"20:03:36",1
"22/07/23","20:20",0.0,23.8,78.7,1001.2,341.6,1.7,3.2,332.4,0.00,19.9,25.1,"20:18:48",1
"22/07/23","20:30",0.0,23.6,79.6,1001.5,328.5,2.0,4.0,334.6,0.00,19.9,25.1,"20:22:56",1
"22/07/23","20:40",0.0,23.4,80.3,1001.2,328.2,1.8,3.5,332.7,0.00,19.9,25.3,"20:36:32",1
"22/07/23","20:50",0.0,23.5,80.3,1001.5,306.6,1.8,4.8,327.1,0.00,20.0,25.1,"20:40:24",1
"22/07/23","21:00",0.0,23.5,80.4,1001.5,308.2,1.7,3.2,326.5,0.00,20.0,25.0,"20:53:52",1
"22/07/23","21:10",0.0,23.5,80.5,1001.7,329.3,2.1,3.1,320.8,0.00,20.0,24.9,"21:00:40",1
"22/07/23","21:20",0.0,23.4,80.7,1001.7,330.6,2.0,3.2,332.2,0.00,19.9,25.1,"21:17:12",1
"22/07/23","21:30",0.0,23.2,81.3,1001.9,335.6,2.2,3.6,337.2,0.00,19.9,24.8,"21:24:24",1
"22/07/23","21:40",0.0,23.3,81.2,1002.2,337.4,2.5,4.3,341.7,0.00,19.9,25.0,"21:37:36",1
"22/07/23","21:50",0.0,23.3,81.0,1001.9,334.5,2.2,4.9,335.3,0.00,19.9,24.7,"21:42:08",1
"22/07/23","22:00",0.0,23.2,81.2,1002.2,309.7,1.5,2.7,332.2,0.00,19.8,25.1,"21:50:16",1
"22/07/23","22:10",0.0,23.0,81.5,1002.2,305.3,1.6,2.8,327.1,0.00,19.7,24.9,"22:06:08",1
"22/07/23","22:20",0.0,22.9,81.7,1002.2,317.6,1.7,2.8,342.7,0.00,19.6,24.8,"22:12:24",1
"22/07/23","22:30",0.0,22.8,82.0,1002.2,345.2,1.0,1.7,342.3,0.00,19.6,25.1,"22:21:44",1
"22/07/23","22:40",0.0,22.6,82.5,1002.2,322.5,1.6,2.5,325.5,0.00,19.5,24.8,"22:39:36",1
"22/07/23","22:50",0.0,22.3,83.0,1001.9,297.2,1.2,1.9,318.1,0.00,19.3,24.7,"22:46:56",1
"22/07/23","23:00",0.0,22.4,83.5,1001.7,314.1,1.6,2.2,327.2,0.00,19.5,24.8,"22:56:16",1
"22/07/23","23:10",0.0,22.1,84.1,1001.7,298.6,1.5,2.2,317.8,0.00,19.3,24.8,"23:04:08",1
"22/07/23","23:20",0.0,21.7,84.8,1001.5,316.7,1.3,1.7,319.5,0.00,19.1,24.6,"23:12:24",1
"22/07/23","23:30",0.0,21.6,85.6,1001.7,315.6,0.8,1.9,305.7,0.00,19.1,24.8,"23:27:52",1
"22/07/23","23:40",0.0,21.3,86.2,1001.5,285.2,0.5,1.1,313.0,0.00,18.9,24.8,"23:30:08",1
"22/07/23","23:50",0.0,21.0,86.7,1001.7,320.1,0.5,1.1,280.5,0.00,18.7,24.8,"23:48:56",1
"22/07/23","24:00",0.0,21.2,87.3,1001.9,354.3,0.6,1.7,302.8,0.00,19.0,24.5,"23:50:56",1
